Flag for France Weather past 2 weeks in Bastia, Corsica, France

Now
46 °F

Clear.


Feels Like: 42 °F
Forecast: 46 / 56 °F
Wind: 8 mph from West

Location: Bastia Airport

Current Time: Mar 1, 2015 at 12:53:19 AM

Latest Report: Mar 1, 2015 at 12:30 AM


Visibility: N/A

Pressure: 30.07 "Hg

Humidity: 82%

Dew point: 41 °F

Location of BastiaLocation

Historic Weather in Bastia — Graph

°F

Bastia temperature yesterday

Maximum temperature yesterday: 59 °F (at 12:30 PM)
Minimum temperature yesterday: 43 °F (at 2:30 AM)
Average temperature yesterday: 49 °F

Past Weeks' High & Low Weather Summary

 TemperatureHumidityPressure
High61 °F (Feb 23, 11:00 AM)100% (Feb 16, 4:30 AM)30.51 "Hg (Feb 16, 4:30 AM)
Low37 °F (Feb 19, 3:30 AM)45% (Feb 23, 11:00 AM)29.39 "Hg (Feb 22, 3:30 AM)
Average50 °F76%29.93 "Hg
* Reported Feb 13 11:00 PM — Feb 28 11:30 PM, Bastia, Weather by CustomWeather, © 2015

Note: Actual official high and low records may vary slightly from our data, if they occured in-between our weather recording intervals... More about our weather records

Advertising

Bastia weather history for previous 24 hours

 ConditionsComfort  
Time TempWeatherWind HumidityBarometerVisibility
11:30 PM
Sat, Feb 28
46 °FPassing clouds.3 mph82%30.07 "HgN/A
11:00 PM45 °FPassing clouds.3 mph81%30.07 "HgN/A
10:30 PM45 °FPassing clouds.2 mph81%30.07 "HgN/A
10:00 PM45 °FPassing clouds.2 mph81%30.07 "HgN/A
9:30 PM46 °FPassing clouds.3 mph87%30.07 "HgN/A
9:00 PM46 °FPassing clouds.3 mph82%30.07 "HgN/A
8:30 PM48 °FPassing clouds.6 mph82%30.07 "HgN/A
8:00 PM48 °FPartly cloudy.3 mph82%30.04 "HgN/A
7:30 PM50 °FPartly cloudy.2 mph82%30.04 "HgN/A
7:00 PM50 °FPassing clouds.3 mph82%30.04 "HgN/A
6:30 PM52 °FPassing clouds.3 mph82%30.01 "HgN/A
6:00 PM52 °FPartly sunny.5 mph82%30.01 "HgN/A
5:24 PM52 °FPartly sunny.6 mph82%30.01 "HgN/A
5:00 PM54 °FPartly sunny.5 mph72%30.01 "HgN/A
4:30 PM54 °FPartly sunny.5 mph72%30.01 "HgN/A
4:00 PM55 °FBroken clouds.5 mph67%30.01 "HgN/A
3:00 PM55 °FScattered clouds.5 mph63%30.01 "HgN/A
2:30 PM57 °FScattered clouds.5 mph63%30.01 "HgN/A
2:00 PM55 °FBroken clouds.5 mph63%30.01 "HgN/A
1:34 PM55 °FBroken clouds.6 mph67%30.01 "HgN/A
1:00 PM57 °FPartly sunny.6 mph63%30.01 "HgN/A
12:30 PM59 °FPartly sunny.7 mph59%30.01 "HgN/A
12:00 PM57 °FPartly sunny.6 mph63%30.01 "HgN/A
11:30 AM57 °FPartly sunny.3 mph59%30.01 "HgN/A
11:11 AM57 °FPartly sunny.2 mph59%30.01 "HgN/A
10:30 AM54 °FPartly sunny.3 mph58%30.01 "HgN/A
10:00 AM55 °FPartly sunny.3 mph59%29.98 "HgN/A
9:30 AM50 °FPartly sunny.5 mph67%29.98 "HgN/A
9:00 AM48 °FPartly sunny.6 mph66%29.98 "HgN/A
8:30 AM48 °FPartly sunny.6 mph66%29.98 "HgN/A
8:00 AM46 °FPartly sunny.6 mph66%29.98 "HgN/A
7:30 AM43 °FPartly sunny.6 mph71%29.95 "HgN/A
7:00 AM43 °FPartly sunny.6 mph71%29.95 "HgN/A
6:30 AM43 °FPassing clouds.7 mph71%29.95 "HgN/A
6:00 AM43 °FPassing clouds.8 mph71%29.95 "HgN/A
5:30 AM43 °FPassing clouds.8 mph71%29.92 "HgN/A
4:54 AM43 °FPassing clouds.9 mph71%29.92 "HgN/A
4:24 AM43 °FPassing clouds.8 mph71%29.92 "HgN/A
4:00 AM45 °FPassing clouds.9 mph66%29.92 "HgN/A
3:30 AM43 °FPassing clouds.8 mph71%29.92 "HgN/A
3:00 AM43 °FClear.10 mph71%29.92 "HgN/A
2:30 AM43 °FClear.8 mph71%29.92 "HgN/A
2:00 AM45 °FClear.7 mph66%29.92 "HgN/A
1:30 AM45 °FClear.5 mph66%29.92 "HgN/A
1:00 AM45 °FClear.3 mph66%29.92 "HgN/A
12:30 AM46 °FClear.9 mph62%29.92 "HgN/A
12:00 AM48 °FPassing clouds.8 mph58%29.92 "HgN/A
Weather by CustomWeather, © 2015

See weather overviewHow to use our weather pages